TimeCDT,TemperatureF,Dew PointF,Humidity,Sea Level PressureIn,VisibilityMPH,Wind Direction,Wind SpeedMPH,Gust SpeedMPH,PrecipitationIn,Events,Conditions,WindDirDegrees,DateUTC
12:53 AM,71.1,69.1,93,30.03,9.0,Calm,Calm,-,N/A,,Scattered Clouds,0,2013-09-12 05:53:00
1:53 AM,73.0,70.0,90,30.03,9.0,Calm,Calm,-,N/A,,Overcast,0,2013-09-12 06:53:00
2:53 AM,73.9,70.0,87,30.04,10.0,Calm,Calm,-,N/A,,Overcast,0,2013-09-12 07:53:00
3:53 AM,72.0,69.1,91,30.02,9.0,Calm,Calm,-,N/A,,Clear,0,2013-09-12 08:53:00
4:53 AM,72.0,69.1,91,30.02,9.0,Calm,Calm,-,N/A,,Partly Cloudy,0,2013-09-12 09:53:00
5:53 AM,70.0,68.0,93,30.03,7.0,Calm,Calm,-,N/A,,Clear,0,2013-09-12 10:53:00
6:53 AM,69.1,68.0,96,30.04,6.0,Calm,Calm,-,N/A,,Clear,0,2013-09-12 11:53:00
8:53 AM,80.1,71.1,74,30.06,10.0,Calm,Calm,-,N/A,,Clear,0,2013-09-12 13:53:00
9:53 AM,84.0,72.0,67,30.06,10.0,Calm,Calm,-,N/A,,Clear,0,2013-09-12 14:53:00
10:53 AM,87.1,70.0,57,30.06,10.0,NNE,6.9,-,N/A,,Partly Cloudy,30,2013-09-12 15:53:00
11:53 AM,87.1,68.0,53,30.05,10.0,NNE,5.8,-,N/A,,Overcast,20,2013-09-12 16:53:00
12:53 PM,90.0,68.0,48,30.03,10.0,Variable,4.6,-,N/A,,Mostly Cloudy,0,2013-09-12 17:53:00
1:53 PM,77.0,72.0,84,30.01,5.0,WSW,11.5,20.7,0.04,Rain,Rain,240,2013-09-12 18:53:00
2:53 PM,84.0,73.0,69,29.98,10.0,WNW,8.1,-,0.00,,Mostly Cloudy,290,2013-09-12 19:53:00
3:53 PM,91.0,69.1,48,29.94,10.0,West,8.1,-,N/A,,Clear,280,2013-09-12 20:53:00
4:53 PM,93.9,62.1,35,29.92,10.0,ENE,3.5,-,N/A,,Scattered Clouds,70,2013-09-12 21:53:00
5:53 PM,93.0,60.1,33,29.90,10.0,East,6.9,-,N/A,,Clear,80,2013-09-12 22:53:00
6:53 PM,89.1,61.0,39,29.91,10.0,East,4.6,-,N/A,,Clear,80,2013-09-12 23:53:00
7:53 PM,82.9,61.0,47,29.91,10.0,Calm,Calm,-,N/A,,Clear,0,2013-09-13 00:53:00
8:53 PM,80.1,63.0,56,29.92,10.0,Calm,Calm,-,N/A,,Clear,0,2013-09-13 01:53:00
9:53 PM,75.9,64.0,67,29.93,10.0,Calm,Calm,-,N/A,,Clear,0,2013-09-13 02:53:00
10:53 PM,75.9,64.9,69,29.94,10.0,SSE,5.8,-,N/A,,Clear,160,2013-09-13 03:53:00
11:53 PM,75.0,64.9,71,29.94,10.0,Calm,Calm,-,N/A,,Clear,0,2013-09-13 04:53:00